Time,TemperatureF,DewpointF,PressureIn,WindDirection,WindDirectionDegrees,WindSpeedMPH,WindSpeedGustMPH,Humidity,HourlyPrecipIn,Conditions,Clouds,dailyrainin,SoftwareType,DateUTC
2013-01-22 00:03:00,8.1,-0.2,30.19,NNW,337,0.0,-999.0,68,-99.99,,,0.00,Acu-Link.com,2013-01-22 05:03:00,
2013-01-22 00:18:00,7.9,-0.1,30.20,WNW,292,0.0,-999.0,69,-99.99,,,0.00,Acu-Link.com,2013-01-22 05:18:00,
2013-01-22 00:33:00,7.5,-0.8,30.20,NW,315,0.0,-999.0,68,-99.99,,,0.00,Acu-Link.com,2013-01-22 05:33:00,
2013-01-22 00:49:00,7.3,-0.7,30.20,WNW,292,0.0,-999.0,69,-99.99,,,0.00,Acu-Link.com,2013-01-22 05:49:00,
2013-01-22 01:04:00,7.0,-0.1,30.19,West,270,0.0,-999.0,72,-99.99,,,0.00,Acu-Link.com,2013-01-22 06:04:00,
2013-01-22 01:19:00,6.6,0.4,30.19,WSW,247,0.0,-999.0,75,-99.99,,,0.00,Acu-Link.com,2013-01-22 06:19:00,
2013-01-22 01:34:00,6.4,1.0,30.20,WNW,292,0.0,-999.0,78,-99.99,,,0.00,Acu-Link.com,2013-01-22 06:34:00,
2013-01-22 01:49:00,6.3,2.3,30.20,WNW,292,0.0,-999.0,83,-99.99,,,0.00,Acu-Link.com,2013-01-22 06:49:00,
2013-01-22 02:05:00,6.3,1.7,30.20,WNW,292,0.0,-999.0,81,-99.99,,,0.00,Acu-Link.com,2013-01-22 07:05:00,
2013-01-22 02:20:00,6.1,1.8,30.20,West,270,0.0,-999.0,82,-99.99,,,0.00,Acu-Link.com,2013-01-22 07:20:00,
2013-01-22 02:35:00,5.9,1.3,30.21,WNW,292,0.0,-999.0,81,-99.99,,,0.00,Acu-Link.com,2013-01-22 07:35:00,
2013-01-22 02:50:00,5.7,1.9,30.21,WNW,292,0.0,-999.0,84,-99.99,,,0.00,Acu-Link.com,2013-01-22 07:50:00,
2013-01-22 03:05:00,5.5,2.2,30.21,NW,315,0.0,-999.0,86,-99.99,,,0.00,Acu-Link.com,2013-01-22 08:05:00,
2013-01-22 03:21:00,5.4,2.9,30.22,WNW,292,0.0,-999.0,89,-99.99,,,0.00,Acu-Link.com,2013-01-22 08:21:00,
2013-01-22 03:36:00,5.4,4.7,30.21,WNW,292,0.0,-999.0,97,-99.99,,,0.00,Acu-Link.com,2013-01-22 08:36:00,
2013-01-22 03:51:00,5.2,4.8,30.21,WNW,292,0.0,-999.0,98,-99.99,,,0.00,Acu-Link.com,2013-01-22 08:51:00,
2013-01-22 04:15:00,5.2,4.8,30.21,West,270,0.0,-999.0,98,-99.99,,,0.00,Acu-Link.com,2013-01-22 09:15:00,
2013-01-22 04:30:00,5.0,4.6,30.22,WNW,292,0.0,-999.0,98,-99.99,,,0.00,Acu-Link.com,2013-01-22 09:30:00,
2013-01-22 04:45:00,4.8,4.4,30.23,West,270,0.0,-999.0,98,-99.99,,,0.00,Acu-Link.com,2013-01-22 09:45:00,
2013-01-22 05:00:00,4.8,4.4,30.23,West,270,0.0,-999.0,98,-99.99,,,0.00,Acu-Link.com,2013-01-22 10:00:00,
2013-01-22 05:15:00,4.6,4.2,30.22,NE,45,0.0,-999.0,98,-99.99,,,0.00,Acu-Link.com,2013-01-22 10:15:00,
2013-01-22 05:31:00,4.6,4.2,30.23,WNW,292,0.0,-999.0,98,-99.99,,,0.00,Acu-Link.com,2013-01-22 10:31:00,
2013-01-22 05:46:00,4.5,4.1,30.23,WNW,292,0.0,-999.0,98,-99.99,,,0.00,Acu-Link.com,2013-01-22 10:46:00,
2013-01-22 06:01:00,4.5,4.1,30.23,NNW,337,0.0,-999.0,98,-99.99,,,0.00,Acu-Link.com,2013-01-22 11:01:00,
2013-01-22 06:16:00,4.3,3.9,30.24,NNW,337,0.0,-999.0,98,-99.99,,,0.00,Acu-Link.com,2013-01-22 11:16:00,
2013-01-22 06:31:00,4.1,3.7,30.24,NNW,337,0.0,-999.0,98,-99.99,,,0.00,Acu-Link.com,2013-01-22 11:31:00,
2013-01-22 06:47:00,3.9,3.5,30.25,NNW,337,0.0,-999.0,98,-99.99,,,0.00,Acu-Link.com,2013-01-22 11:47:00,
2013-01-22 07:02:00,3.7,3.3,30.25,NW,315,0.0,-999.0,98,-99.99,,,0.00,Acu-Link.com,2013-01-22 12:02:00,
2013-01-22 07:32:00,3.6,3.2,30.27,WNW,292,0.0,-999.0,98,-99.99,,,0.00,Acu-Link.com,2013-01-22 12:32:00,
2013-01-22 08:03:00,3.4,3.0,30.27,NW,315,0.0,-999.0,98,-99.99,,,0.00,Acu-Link.com,2013-01-22 13:03:00,
2013-01-22 08:33:00,3.6,3.2,30.28,North,0,0.0,-999.0,98,-99.99,,,0.00,Acu-Link.com,2013-01-22 13:33:00,
2013-01-22 08:48:00,3.9,3.5,30.29,WNW,292,0.0,-999.0,98,-99.99,,,0.00,Acu-Link.com,2013-01-22 13:48:00,
2013-01-22 09:03:00,4.3,3.9,30.29,NW,315,0.0,-999.0,98,-99.99,,,0.00,Acu-Link.com,2013-01-22 14:03:00,
2013-01-22 09:19:00,4.6,4.2,30.29,NW,315,0.0,-999.0,98,-99.99,,,0.00,Acu-Link.com,2013-01-22 14:19:00,
2013-01-22 09:34:00,5.0,4.6,30.30,NNW,337,0.0,-999.0,98,-99.99,,,0.00,Acu-Link.com,2013-01-22 14:34:00,
2013-01-22 09:49:00,5.4,3.1,30.30,WNW,292,0.0,-999.0,90,-99.99,,,0.00,Acu-Link.com,2013-01-22 14:49:00,
2013-01-22 10:04:00,5.9,4.8,30.31,NNW,337,0.0,-999.0,95,-99.99,,,0.00,Acu-Link.com,2013-01-22 15:04:00,
2013-01-22 10:19:00,7.0,0.8,30.31,WSW,247,0.0,-999.0,75,-99.99,,,0.00,Acu-Link.com,2013-01-22 15:19:00,
2013-01-22 10:35:00,7.7,1.7,30.31,NW,315,0.0,-999.0,76,-99.99,,,0.00,Acu-Link.com,2013-01-22 15:35:00,
2013-01-22 10:50:00,7.9,-0.4,30.32,NW,315,0.0,-999.0,68,-99.99,,,0.00,Acu-Link.com,2013-01-22 15:50:00,
2013-01-22 11:05:00,8.8,0.7,30.32,NNE,22,0.0,-999.0,69,-99.99,,,0.00,Acu-Link.com,2013-01-22 16:05:00,
2013-01-22 11:20:00,8.8,0.4,30.32,NNW,337,0.0,-999.0,68,-99.99,,,0.00,Acu-Link.com,2013-01-22 16:20:00,
2013-01-22 11:36:00,10.2,0.8,30.31,NE,45,0.0,-999.0,65,-99.99,,,0.00,Acu-Link.com,2013-01-22 16:36:00,
2013-01-22 11:51:00,10.6,0.5,30.30,North,0,0.0,-999.0,63,-99.99,,,0.00,Acu-Link.com,2013-01-22 16:51:00,
2013-01-22 12:06:00,11.1,-0.8,30.30,WNW,292,0.0,-999.0,58,-99.99,,,0.00,Acu-Link.com,2013-01-22 17:06:00,
2013-01-22 12:21:00,12.6,-0.1,30.29,NW,315,0.0,-999.0,56,-99.99,,,0.00,Acu-Link.com,2013-01-22 17:21:00,
2013-01-22 12:52:00,12.6,-0.1,30.27,NNW,337,0.0,-999.0,56,-99.99,,,0.00,Acu-Link.com,2013-01-22 17:52:00,
2013-01-22 13:07:00,13.5,0.4,30.27,NNE,22,0.0,-999.0,55,-99.99,,,0.00,Acu-Link.com,2013-01-22 18:07:00,
2013-01-22 13:22:00,14.5,0.5,30.26,West,270,0.0,-999.0,53,-99.99,,,0.00,Acu-Link.com,2013-01-22 18:22:00,
2013-01-22 13:37:00,14.2,-0.6,30.25,WSW,247,0.0,-999.0,51,-99.99,,,0.00,Acu-Link.com,2013-01-22 18:37:00,
2013-01-22 13:52:00,14.0,-0.8,30.24,NNW,337,0.0,-999.0,51,-99.99,,,0.00,Acu-Link.com,2013-01-22 18:52:00,
2013-01-22 14:08:00,15.4,-0.7,30.25,WSW,247,0.0,-999.0,48,-99.99,,,0.00,Acu-Link.com,2013-01-22 19:08:00,
2013-01-22 14:23:00,16.0,0.3,30.25,NW,315,0.0,-999.0,49,-99.99,,,0.00,Acu-Link.com,2013-01-22 19:23:00,
2013-01-22 14:38:00,17.1,1.3,30.25,WSW,247,0.0,-999.0,49,-99.99,,,0.00,Acu-Link.com,2013-01-22 19:38:00,
2013-01-22 14:53:00,16.9,0.6,30.25,West,270,0.0,-999.0,48,-99.99,,,0.00,Acu-Link.com,2013-01-22 19:53:00,
2013-01-22 15:08:00,16.9,-0.3,30.25,NW,315,0.0,-999.0,46,-99.99,,,0.00,Acu-Link.com,2013-01-22 20:08:00,
2013-01-22 15:24:00,16.9,-0.3,30.25,East,90,0.0,-999.0,46,-99.99,,,0.00,Acu-Link.com,2013-01-22 20:24:00,
2013-01-22 15:39:00,17.4,0.7,30.25,NW,315,0.0,-999.0,47,-99.99,,,0.00,Acu-Link.com,2013-01-22 20:39:00,
2013-01-22 15:54:00,17.2,0.0,30.25,NNW,337,0.0,-999.0,46,-99.99,,,0.00,Acu-Link.com,2013-01-22 20:54:00,
2013-01-22 16:09:00,17.4,-0.3,30.25,NNE,22,0.0,-999.0,45,-99.99,,,0.00,Acu-Link.com,2013-01-22 21:09:00,
2013-01-22 16:24:00,17.6,0.4,30.25,SW,225,0.0,-999.0,46,-99.99,,,0.00,Acu-Link.com,2013-01-22 21:24:00,
2013-01-22 16:40:00,17.4,0.2,30.25,SW,225,0.0,-999.0,46,-99.99,,,0.00,Acu-Link.com,2013-01-22 21:40:00,
2013-01-22 16:55:00,16.2,-0.4,30.25,NNW,337,0.0,-999.0,47,-99.99,,,0.00,Acu-Link.com,2013-01-22 21:55:00,
2013-01-22 17:10:00,15.4,0.1,30.24,WSW,247,0.0,-999.0,50,-99.99,,,0.00,Acu-Link.com,2013-01-22 22:10:00,
2013-01-22 17:25:00,15.1,0.3,30.24,NNW,337,0.0,-999.0,51,-99.99,,,0.00,Acu-Link.com,2013-01-22 22:25:00,
2013-01-22 17:41:00,14.7,0.3,30.25,NNW,337,0.0,-999.0,52,-99.99,,,0.00,Acu-Link.com,2013-01-22 22:41:00,
2013-01-22 17:56:00,14.4,0.4,30.25,WSW,247,0.0,-999.0,53,-99.99,,,0.00,Acu-Link.com,2013-01-22 22:56:00,
2013-01-22 18:41:00,14.2,1.8,30.25,SW,225,0.0,-999.0,57,-99.99,,,0.00,Acu-Link.com,2013-01-22 23:41:00,
2013-01-22 18:57:00,14.2,0.6,30.24,West,270,0.0,-999.0,54,-99.99,,,0.00,Acu-Link.com,2013-01-22 23:57:00,
2013-01-22 19:12:00,14.2,0.6,30.26,WNW,292,0.0,-999.0,54,-99.99,,,0.00,Acu-Link.com,2013-01-23 00:12:00,
2013-01-22 19:27:00,14.2,0.2,30.26,West,270,0.0,-999.0,53,-99.99,,,0.00,Acu-Link.com,2013-01-23 00:27:00,
2013-01-22 19:42:00,14.4,0.0,30.25,West,270,0.0,-999.0,52,-99.99,,,0.00,Acu-Link.com,2013-01-23 00:42:00,
2013-01-22 19:57:00,14.4,0.0,30.26,SW,225,0.0,-999.0,52,-99.99,,,0.00,Acu-Link.com,2013-01-23 00:57:00,
2013-01-22 20:13:00,14.4,0.4,30.24,WSW,247,0.0,-999.0,53,-99.99,,,0.00,Acu-Link.com,2013-01-23 01:13:00,
2013-01-22 20:28:00,14.4,0.0,30.23,West,270,0.0,-999.0,52,-99.99,,,0.00,Acu-Link.com,2013-01-23 01:28:00,
2013-01-22 20:43:00,14.4,0.0,30.23,West,270,0.0,-999.0,52,-99.99,,,0.00,Acu-Link.com,2013-01-23 01:43:00,
2013-01-22 20:58:00,14.4,0.4,30.24,West,270,0.0,-999.0,53,-99.99,,,0.00,Acu-Link.com,2013-01-23 01:58:00,
2013-01-22 21:13:00,14.4,0.8,30.24,NNE,22,0.0,-999.0,54,-99.99,,,0.00,Acu-Link.com,2013-01-23 02:13:00,
2013-01-22 21:29:00,14.4,0.8,30.24,SW,225,0.0,-999.0,54,-99.99,,,0.00,Acu-Link.com,2013-01-23 02:29:00,
2013-01-22 21:44:00,14.4,1.2,30.24,SSW,202,0.0,-999.0,55,-99.99,,,0.00,Acu-Link.com,2013-01-23 02:44:00,
2013-01-22 21:59:00,14.4,1.6,30.24,WSW,247,0.0,-999.0,56,-99.99,,,0.00,Acu-Link.com,2013-01-23 02:59:00,
2013-01-22 22:14:00,14.4,0.8,30.25,WNW,292,0.0,-999.0,54,-99.99,,,0.00,Acu-Link.com,2013-01-23 03:14:00,
2013-01-22 22:29:00,14.4,0.8,30.26,WNW,292,0.0,-999.0,54,-99.99,,,0.00,Acu-Link.com,2013-01-23 03:29:00,
2013-01-22 22:45:00,14.2,1.4,30.26,NNE,22,0.0,-999.0,56,-99.99,,,0.00,Acu-Link.com,2013-01-23 03:45:00,
2013-01-22 23:00:00,14.0,2.0,30.26,NNW,337,0.0,-999.0,58,-99.99,,,0.00,Acu-Link.com,2013-01-23 04:00:00,
2013-01-22 23:15:00,13.8,2.5,30.26,WSW,247,0.0,-999.0,60,-99.99,,,0.00,Acu-Link.com,2013-01-23 04:15:00,
2013-01-22 23:30:00,13.8,2.5,30.26,NW,315,0.0,-999.0,60,-99.99,,,0.00,Acu-Link.com,2013-01-23 04:30:00,
2013-01-22 23:46:00,13.8,2.5,30.27,NNW,337,0.0,-999.0,60,-99.99,,,0.00,Acu-Link.com,2013-01-23 04:46:00,